When you browse on this site, cookies collect data to enhance your experience and personalize the content and advertising you see.
Visit our Privacy Policy to learn more. By continuing to use the site, you agree to this use of cookies and data.
  • In Romania
  • List of Countries
  • For 7 days
  • Water Temperature
  • Weather Map
  • Weather Widgets
  • user-avatar
    Login

    Hourly Weather Christchurch

    Today, 19 September, Thursday

    Time Temperature Precipitation Wind Pressure Humidity
    00:00 +6°C° 0 mm 1 mps 772 mmHg 73%
    01:00 +6°C° 0 mm 1 mps 772 mmHg 73%
    02:00 +5°C° 0 mm 2 mps 772 mmHg 74%
    03:00 +4°C° 0 mm 2 mps 772 mmHg 75%
    04:00 +5°C° 0 mm 1 mps 772 mmHg 75%
    05:00 +5°C° 0 mm 1 mps 772 mmHg 75%
    06:00 +5°C° 0 mm 1 mps 773 mmHg 71%
    07:00 +7°C° 0 mm 1 mps 773 mmHg 67%
    08:00 +9°C° 0 mm 1 mps 773 mmHg 63%
    09:00 +11°C° 0 mm 1 mps 773 mmHg 59%
    10:00 +13°C° 0 mm 1 mps 773 mmHg 56%
    11:00 +14°C° 0 mm 1 mps 773 mmHg 54%
    12:00 +16°C° 0 mm 1 mps 772 mmHg 51%
    13:00 +15°C° 0 mm 2 mps 772 mmHg 52%
    14:00 +14°C° 0 mm 3 mps 772 mmHg 53%
    15:00 +14°C° 0 mm 3 mps 771 mmHg 55%
    16:00 +12°C° 0 mm 3 mps 771 mmHg 61%
    17:00 +12°C° 0 mm 2 mps 772 mmHg 68%
    18:00 +9°C° 0 mm 3 mps 772 mmHg 70%
    19:00 +8°C° 0 mm 3 mps 773 mmHg 74%
    20:00 +7°C° 0 mm 2 mps 773 mmHg 78%
    21:00 +6°C° 0 mm 2 mps 773 mmHg 82%
    22:00 +7°C° 0 mm 1 mps 774 mmHg 83%
    23:00 +7°C° 0 mm 1 mps 774 mmHg 84%

    Tomorrow, 20 September, Friday

    Time Temperature Precipitation Wind Pressure Humidity
    00:00 +6°C° 0 mm 1 mps 775 mmHg 85%
    01:00 +6°C° 0 mm 1 mps 775 mmHg 86%
    02:00 +5°C° 0 mm 2 mps 775 mmHg 87%
    03:00 +4°C° 0 mm 2 mps 775 mmHg 88%
    04:00 +5°C° 0 mm 2 mps 775 mmHg 87%
    05:00 +5°C° 0 mm 2 mps 775 mmHg 85%
    06:00 +5°C° 0 mm 2 mps 776 mmHg 83%
    07:00 +7°C° 0 mm 2 mps 776 mmHg 77%
    08:00 +9°C° 0 mm 2 mps 776 mmHg 72%
    09:00 +12°C° 0 mm 1 mps 776 mmHg 66%
    10:00 +13°C° 0 mm 1 mps 776 mmHg 63%
    11:00 +14°C° 0 mm 1 mps 776 mmHg 60%
    12:00 +15°C° 0 mm 1 mps 777 mmHg 57%
    13:00 +15°C° 0 mm 2 mps 776 mmHg 58%
    14:00 +15°C° 0 mm 2 mps 776 mmHg 59%
    15:00 +15°C° 0 mm 2 mps 775 mmHg 60%
    16:00 +13°C° 0 mm 2 mps 776 mmHg 66%
    17:00 +12°C° 0 mm 2 mps 776 mmHg 71%
    18:00 +10°C° 0 mm 2 mps 776 mmHg 76%
    19:00 +9°C° 0 mm 2 mps 776 mmHg 79%
    20:00 +8°C° 0 mm 2 mps 776 mmHg 82%
    21:00 +7°C° 0 mm 2 mps 776 mmHg 85%
    22:00 +7°C° 0 mm 2 mps 776 mmHg 87%
    23:00 +6°C° 0 mm 2 mps 776 mmHg 88%

    Day after tomorrow, 21 September, Saturday

    Time Temperature Precipitation Wind Pressure Humidity
    00:00 +6°C° 0 mm 2 mps 776 mmHg 89%
    01:00 +6°C° 0 mm 2 mps 776 mmHg 89%
    02:00 +6°C° 0 mm 2 mps 776 mmHg 89%
    03:00 +6°C° 0 mm 2 mps 775 mmHg 89%
    04:00 +6°C° 0 mm 2 mps 775 mmHg 89%
    05:00 +6°C° 0 mm 2 mps 775 mmHg 89%
    06:00 +6°C° 0 mm 2 mps 775 mmHg 89%
    07:00 +8°C° 0 mm 2 mps 775 mmHg 83%
    08:00 +10°C° 0 mm 2 mps 775 mmHg 77%
    09:00 +12°C° 0 mm 2 mps 775 mmHg 71%
    10:00 +14°C° 0 mm 2 mps 775 mmHg 67%
    11:00 +15°C° 0 mm 2 mps 775 mmHg 63%
    12:00 +17°C° 0 mm 3 mps 775 mmHg 58%
    13:00 +16°C° 0 mm 3 mps 774 mmHg 60%
    14:00 +16°C° 0 mm 3 mps 773 mmHg 61%
    15:00 +16°C° 0 mm 3 mps 773 mmHg 62%
    16:00 +13°C° 0 mm 3 mps 773 mmHg 67%
    17:00 +12°C° 0 mm 3 mps 773 mmHg 73%
    18:00 +10°C° 0 mm 2 mps 773 mmHg 78%
    19:00 +9°C° 0 mm 2 mps 773 mmHg 81%
    20:00 +8°C° 0 mm 2 mps 773 mmHg 85%
    21:00 +7°C° 0 mm 2 mps 773 mmHg 88%
    22:00 +7°C° 0 mm 2 mps 773 mmHg 89%
    23:00 +7°C° 0 mm 2 mps 772 mmHg 90%

    22 September, Sunday

    Time Temperature Precipitation Wind Pressure Humidity
    00:00 +7°C° 0 mm 2 mps 772 mmHg 91%
    01:00 +7°C° 0 mm 2 mps 772 mmHg 92%
    02:00 +7°C° 0 mm 2 mps 771 mmHg 92%
    03:00 +7°C° 0 mm 2 mps 771 mmHg 92%
    04:00 +7°C° 0 mm 1 mps 770 mmHg 91%
    05:00 +7°C° 0 mm 1 mps 770 mmHg 90%
    06:00 +7°C° 0 mm 1 mps 770 mmHg 89%
    07:00 +9°C° 0 mm 1 mps 770 mmHg 83%
    08:00 +11°C° 0 mm 1 mps 769 mmHg 78%
    09:00 +13°C° 0 mm 1 mps 769 mmHg 72%
    10:00 +14°C° 0 mm 1 mps 768 mmHg 65%
    11:00 +16°C° 0 mm 2 mps 768 mmHg 58%
    12:00 +18°C° 0 mm 2 mps 767 mmHg 52%
    13:00 +18°C° 0 mm 2 mps 766 mmHg 53%
    14:00 +18°C° 0 mm 2 mps 765 mmHg 54%
    15:00 +18°C° 0 mm 3 mps 764 mmHg 55%
    16:00 +17°C° 0 mm 2 mps 764 mmHg 60%
    17:00 +15°C° 0 mm 2 mps 764 mmHg 66%
    18:00 +13°C° 0 mm 2 mps 763 mmHg 72%
    19:00 +11°C° 0 mm 3 mps 763 mmHg 71%
    20:00 +9°C° 0 mm 3 mps 763 mmHg 70%
    21:00 +7°C° 0 mm 4 mps 763 mmHg 69%
    22:00 +8°C° 0 mm 3 mps 762 mmHg 68%
    23:00 +8°C° 0 mm 3 mps 762 mmHg 67%

    23 September, Monday

    Time Temperature Precipitation Wind Pressure Humidity
    00:00 +7°C° 0 mm 3 mps 761 mmHg 66%
    01:00 +8°C° 0 mm 3 mps 761 mmHg 66%
    02:00 +8°C° 0 mm 3 mps 760 mmHg 65%
    03:00 +8°C° 0 mm 4 mps 759 mmHg 65%
    04:00 +8°C° 0 mm 4 mps 759 mmHg 64%
    05:00 +9°C° 0 mm 5 mps 758 mmHg 63%
    06:00 +10°C° 0 mm 5 mps 758 mmHg 62%
    07:00 +12°C° 0 mm 5 mps 757 mmHg 65%
    08:00 +13°C° 0 mm 5 mps 757 mmHg 67%
    09:00 +14°C° 0 mm 4 mps 756 mmHg 70%
    10:00 +17°C° 0 mm 4 mps 756 mmHg 66%
    11:00 +18°C° 0 mm 3 mps 756 mmHg 62%
    12:00 +19°C° 0 mm 3 mps 755 mmHg 58%
    13:00 +19°C° 0 mm 3 mps 755 mmHg 58%
    14:00 +19°C° 0 mm 3 mps 754 mmHg 59%
    15:00 +19°C° 0 mm 4 mps 754 mmHg 59%
    16:00 +15°C° 0 mm 4 mps 754 mmHg 68%
    17:00 +13°C° 0 mm 4 mps 754 mmHg 76%
    18:00 +9°C° 0 mm 5 mps 754 mmHg 85%
    19:00 +10°C° 0 mm 4 mps 755 mmHg 83%
    20:00 +10°C° 0 mm 4 mps 755 mmHg 81%
    21:00 +8°C° 0 mm 4 mps 756 mmHg 78%
    22:00 +8°C° 0.1 mm 4 mps 756 mmHg 79%
    23:00 +9°C° 0.1 mm 3 mps 756 mmHg 79%

    24 September, Tuesday

    Time Temperature Precipitation Wind Pressure Humidity
    00:00 +8°C° 0.1 mm 3 mps 756 mmHg 79%
    01:00 +8°C° 0.1 mm 3 mps 755 mmHg 82%
    02:00 +8°C° 0.1 mm 3 mps 755 mmHg 84%
    03:00 +7°C° 0.1 mm 3 mps 755 mmHg 87%
    04:00 +6°C° 0.1 mm 4 mps 755 mmHg 89%
    05:00 +6°C° 0.1 mm 4 mps 754 mmHg 91%
    06:00 +6°C° 0.1 mm 4 mps 754 mmHg 93%
    07:00 +6°C° 1.6 mm 4 mps 754 mmHg 93%
    08:00 +6°C° 1.6 mm 4 mps 753 mmHg 93%
    09:00 +6°C° 1.6 mm 4 mps 753 mmHg 94%
    10:00 +6°C° 0.8 mm 4 mps 753 mmHg 92%
    11:00 +6°C° 0.8 mm 4 mps 752 mmHg 91%
    12:00 +6°C° 0.8 mm 4 mps 752 mmHg 89%
    13:00 +6°C° 1.1 mm 4 mps 751 mmHg 89%
    14:00 +5°C° 1.1 mm 3 mps 751 mmHg 89%
    15:00 +5°C° 1.1 mm 3 mps 750 mmHg 89%
    16:00 +5°C° 0.8 mm 3 mps 750 mmHg 90%
    17:00 +5°C° 0.8 mm 3 mps 750 mmHg 92%
    18:00 +4°C° 0.8 mm 3 mps 750 mmHg 93%
    19:00 +4°C° 0.5 mm 3 mps 751 mmHg 94%
    20:00 +4°C° 0.5 mm 3 mps 751 mmHg 94%
    21:00 +4°C° 0.5 mm 3 mps 751 mmHg 95%
    22:00 +3°C° 0 mm 3 mps 751 mmHg 94%
    23:00 +2°C° 0 mm 3 mps 751 mmHg 94%
    Show more